Location: Goudex
(43.3760°N, 0.9543°E)
Time: 18:54:34
(UTC+00:00)

Lacrosse 5 - Pass Details

Date: 20 November 2019
Orbit: 715 x 724 km, 57.0° (Epoch: 04 December)

Event Time Altitude Azimuth Distance (km) Brightness Sun altitude
Exits shadow 05:28:00 15° 327° (NNW) 1,876 3.6 -15.8°
Maximum altitude 05:29:49 18° 353° (N) 1,732 3.6 -15.4°
Drops below altitude 10° 05:33:14 10° 35° (NE) 2,203 4.7 -14.8°
Sets 05:36:22 0° 55° (NE) 3,123 5.8 -14.3°
